Content
SEND FEEDBACK

Daily
Averages
Monthly
Summary
United States of America

ST. LOUIS, MISSOURI


Home > North America > United States > Missouri
Elevation: 535 feet     Latitude: 38 45N     Longitude: 090 22W

WEATHER
 
SELECT A DAY
Number of Records: 199,572;   Date Range: 1/1/95 - 10/18/14
 
SHARE

PRINT THIS DATA

[ ← Previous Day ]
WEATHER ALMANAC - APRIL 20, 2013
[ Next Day → ]
[ °C ]   °F
Weather ElementAverageHighLow
Temperature44.9 °F55.9 °F (4:54 pm)30.9 °F (5:54 am)
Dewpoint27.8 °F30.9 °F (9:54 pm)25 °F (1:54 pm)
Humidity55 %89 % (6:54 am)30 % (4:54 pm)
Barometer30.25 in30.34 in (10:54 pm)30.11 in (1:54 am)
Wind Speed3.5 mph9.2 mph (5:54 pm)
Weather ElementAverage
Visibility10 mi
Wind DirectionENE (78.7 °)

Weather ElementTotal
Precipitation---
Heating Degree Days21.6 (Base 65)
Averaged from 23 records on April 20, 2013
WEATHER CONDITIONS BREAKOUT
WIND DIRECTION BREAKOUT
WEATHER BY HOUR - APRIL 20, 2013
[ °C ]   °F
Local TimeTemperatureDewpointHumidityBarometerVisibilityWind DirectionWind SpeedGust SpeedPrecipitationEventsConditions
1:54 AM34.0 °F30.0 °F85 %30.11 in10.0 miCalmClear
2:54 AM33.1 °F28.0 °F82 %30.13 in10.0 miWSW (250°)4.6 mphClear
3:54 AM34.0 °F27.0 °F75 %30.14 in10.0 miWest (260°)3.5 mphClear
4:54 AM32.0 °F28.0 °F85 %30.17 in10.0 miCalmClear
5:54 AM30.9 °F27.0 °F85 %30.20 in10.0 miCalmClear
6:54 AM30.9 °F28.0 °F89 %30.23 in10.0 miCalmClear
7:54 AM36.0 °F30.0 °F79 %30.26 in10.0 miCalmClear
8:54 AM42.1 °F28.9 °F60 %30.28 in10.0 miCalmClear
9:54 AM44.1 °F28.0 °F53 %30.29 in10.0 miCalmClear
10:54 AM48.0 °F27.0 °F44 %30.30 in10.0 miCalmScattered Clouds
11:54 AM51.1 °F26.1 °F38 %30.30 in10.0 miNNW (330°)6.9 mphPartly Cloudy
12:54 PM53.1 °F26.1 °F35 %30.29 in10.0 miNW (320°)6.9 mphPartly Cloudy
1:54 PM55.0 °F25.0 °F31 %30.27 in10.0 miCalmClear
2:54 PM55.0 °F27.0 °F34 %30.27 in10.0 miNNE (20°)6.9 mphPartly Cloudy
3:54 PM55.0 °F28.0 °F35 %30.25 in10.0 miNNE (30°)3.5 mphScattered Clouds
4:54 PM55.9 °F25.0 °F30 %30.25 in10.0 miCalmScattered Clouds
5:54 PM55.0 °F27.0 °F34 %30.26 in10.0 miENE (60°)9.2 mphClear
6:54 PM52.0 °F26.1 °F37 %30.25 in10.0 miEast (80°)9.2 mphScattered Clouds
7:54 PM51.1 °F28.0 °F41 %30.27 in10.0 miENE (60°)8.1 mphScattered Clouds
8:54 PM48.0 °F28.0 °F46 %30.29 in10.0 miEast (100°)5.8 mphPartly Cloudy
9:54 PM46.0 °F30.9 °F56 %30.33 in10.0 miEast (100°)5.8 mphClear
10:54 PM46.0 °F30.0 °F54 %30.34 in10.0 miESE (110°)4.6 mphClear
11:54 PM45.0 °F30.0 °F56 %30.34 in10.0 miEast (90°)4.6 mphClear
Hourly data recorded from KSUS, located miles away from St. Louis, Missouri







STORIES FROM OUR PARTNERS